Location: Arnolds Mill
(42.3415°N, 73.5951°W)
Time: 10:27:36
(UTC+00:00)

BlueWalker 3 - Pass Details

Date: 23 June 2024
Orbit: 480 x 492 km, 53.2° (Epoch: 13 July)

Event Time Altitude Azimuth Distance (km) Brightness Sun altitude
Rises 05:41:54 0° 310° (NW) 2,540 5.9 -23.4°
Reaches altitude 10° 05:44:16 10° 322° (NW) 1,658 5.1 -23.3°
Maximum altitude 05:47:34 29° 24° (NNE) 903 3.8 -23.2°
Drops below altitude 10° 05:50:53 10° 87° (E) 1,654 4.7 -23.1°
Sets 05:53:14 0° 99° (E) 2,533 5.6 -23.0°
